Weather History for Hawarden, United Kingdom

Change the Weather History Date:

Sunday, October 7, 2012

  Actual Average (EGGP) Record (EGGP)
Temperature  
Mean Temperature 50 °F -  
Max Temperature 57 °F 53 °F 64 °F (2013)
Min Temperature 42 °F 44 °F 42 °F (1998)
Degree Days  
Heating Degree Days 15    
Moisture  
Dew Point 45 °F    
Average Humidity 73    
Maximum Humidity 91    
Minimum Humidity 50    
Precipitation  
Precipitation 0.00 in - - ()
Sea Level Pressure  
Sea Level Pressure 30.19 in    
Wind  
Wind Speed 2 mph ()    
Max Wind Speed 6 mph    
Max Gust Speed -    
Visibility 9.6 miles    
Events      
Averages and records for this station are not official NWS values.
T = Trace of Precipitation, MM = Missing Value Source: Averaged Metar Reports

Daily Weather History Graph

Daily Weather History Graph

Search for Another Location

Airport:

Trip Planner

Search our weather history database for the weather conditions in past years. The results will help you decide how hot, cold, wet, or windy it might be!

Date:

Astronomy

Oct. 07, 2012 Rise Set
Actual Time 7:24 AM BST 6:33 PM BST
Civil Twilight 6:49 AM BST 7:08 PM BST
Nautical Twilight 6:09 AM BST 7:48 PM BST
Astronomical Twilight 5:28 AM BST 8:29 PM BST
Moon 10:57 PM BST (10/7) 2:27 PM BST (10/7)
Length of Visible Light 12h 18m
Length of Day
11h 09m
Waning Gibbous, 58% of the Moon is Illuminated
Oct 7
Waning Gibbous
Oct 8
Last Quarter
Oct 15
New
Oct 22
First Quarter
Oct 29
Full

Hourly Weather History & Observations

Time (BST) Temp. Dew Point Humidity Pressure Visibility Wind Dir Wind Speed Gust Speed Precip Events Conditions
12:50 AM 47 °F 45 °F 88% 30.09 in 19 mi WNW 2.3 mph - -   Mostly Cloudy
3:50 AM 47 °F 45 °F 89% 30.12 in 19 mi West 3.5 mph - -   Scattered Clouds
6:50 AM 44 °F 41 °F 83% 30.15 in 22 mi NW 2.3 mph - -  
9:50 AM 52 °F 45 °F 70% 30.21 in 16 mi SE 1.2 mph - -   Partly Cloudy
9:50 AM 51.8 °F 46.4 °F 82% 30.21 in 6.2 mi Calm Calm - N/A   Partly Cloudy
10:20 AM 53.6 °F 46.4 °F 77% 30.21 in 6.2 mi Variable 2.3 mph - N/A   Partly Cloudy
10:50 AM 55.4 °F 46.4 °F 72% 30.21 in 6.2 mi NNW 5.8 mph - N/A   Partly Cloudy
11:20 AM 53.6 °F 44.6 °F 72% 30.21 in 6.2 mi North 4.6 mph - N/A   Partly Cloudy
12:20 PM 55.4 °F 44.6 °F 67% 30.21 in 6.2 mi NNE 5.8 mph - N/A   Partly Cloudy
12:50 PM 55 °F 42 °F 50% 30.22 in 19 mi North 5.8 mph - -   Mostly Cloudy
12:50 PM 55.4 °F 46.4 °F 72% 30.21 in 6.2 mi NNW 4.6 mph - N/A   Partly Cloudy
1:20 PM 55.4 °F 44.6 °F 67% 30.21 in 6.2 mi Variable 2.3 mph - N/A   Partly Cloudy
1:50 PM 57.2 °F 44.6 °F 63% 30.21 in 6.2 mi Calm Calm - N/A   Partly Cloudy
2:20 PM 55.4 °F 42.8 °F 63% 30.21 in 6.2 mi Calm Calm - N/A   Partly Cloudy
2:50 PM 55.4 °F 46.4 °F 72% 30.18 in 6.2 mi Variable 3.5 mph - N/A   Partly Cloudy
3:20 PM 55.4 °F 46.4 °F 72% 30.18 in 6.2 mi Variable 3.5 mph - N/A   Partly Cloudy
3:50 PM 54 °F 42 °F 53% 30.20 in 25 mi NNW 3.5 mph - -   Scattered Clouds
3:50 PM 55.4 °F 48.2 °F 77% 30.18 in 6.2 mi Variable 3.5 mph - N/A   Partly Cloudy
6:50 PM 48 °F 43 °F 76% 30.19 in 19 mi NNW 1.2 mph - -   Scattered Clouds
9:50 PM 42 °F 40 °F 91% 30.19 in 6 mi SSW 1.2 mph - -   Mostly Cloudy